When you browse on this site, cookies collect data to enhance your experience and personalize the content and advertising you see.
Visit our Privacy Policy to learn more. By continuing to use the site, you agree to this use of cookies and data.
  • In Spain
  • List of Countries
  • For 7 days
  • Water Temperature
  • Weather Map
  • Weather Widgets
  • user-avatar
    Login

    Hourly Weather Kinshasa

    Today, 28 February, Friday

    Time Temperature Precipitation Wind Pressure Humidity
    00:00 +27°C° 0 mm 1 mps 706 mmHg 30%
    01:00 +27°C° 0 mm 1 mps 706 mmHg 32%
    02:00 +27°C° 0 mm 1 mps 706 mmHg 34%
    03:00 +26°C° 0 mm 1 mps 706 mmHg 35%
    04:00 +26°C° 0 mm 1 mps 706 mmHg 36%
    05:00 +26°C° 0 mm 1 mps 706 mmHg 39%
    06:00 +25°C° 0 mm 1 mps 707 mmHg 42%
    07:00 +25°C° 0 mm 1 mps 707 mmHg 44%
    08:00 +28°C° 0 mm 1 mps 708 mmHg 40%
    09:00 +30°C° 0 mm 1 mps 708 mmHg 36%
    10:00 +34°C° 0 mm 2 mps 709 mmHg 33%
    11:00 +36°C° 0 mm 2 mps 708 mmHg 27%
    12:00 +38°C° 0 mm 2 mps 707 mmHg 21%
    13:00 +40°C° 0 mm 2 mps 707 mmHg 17%
    14:00 +40°C° 0 mm 2 mps 706 mmHg 16%
    15:00 +40°C° 0 mm 2 mps 705 mmHg 15%
    16:00 +40°C° 0 mm 3 mps 704 mmHg 14%
    17:00 +37°C° 0 mm 2 mps 704 mmHg 17%
    18:00 +33°C° 0 mm 1 mps 705 mmHg 20%
    19:00 +30°C° 0 mm 1 mps 705 mmHg 23%
    20:00 +29°C° 0 mm 1 mps 705 mmHg 24%
    21:00 +28°C° 0 mm 1 mps 706 mmHg 25%
    22:00 +27°C° 0 mm 1 mps 706 mmHg 26%
    23:00 +24°C° 0 mm 0 mps 706 mmHg 29%

    Tomorrow, 29 February, Saturday

    Time Temperature Precipitation Wind Pressure Humidity
    00:00 +23°C° 0 mm 0 mps 705 mmHg 31%
    01:00 +22°C° 0 mm 0 mps 705 mmHg 33%
    02:00 +21°C° 0 mm 0 mps 705 mmHg 34%
    03:00 +23°C° 0 mm 1 mps 705 mmHg 35%
    04:00 +22°C° 0 mm 1 mps 704 mmHg 36%
    05:00 +22°C° 0 mm 1 mps 705 mmHg 40%
    06:00 +22°C° 0 mm 1 mps 706 mmHg 44%
    07:00 +23°C° 0 mm 1 mps 706 mmHg 49%
    08:00 +27°C° 0 mm 1 mps 707 mmHg 43%
    09:00 +31°C° 0 mm 1 mps 708 mmHg 37%
    10:00 +35°C° 0 mm 1 mps 708 mmHg 32%
    11:00 +38°C° 0 mm 2 mps 708 mmHg 26%
    12:00 +40°C° 0 mm 2 mps 707 mmHg 20%
    13:00 +42°C° 0 mm 2 mps 706 mmHg 14%
    14:00 +42°C° 0 mm 2 mps 705 mmHg 13%
    15:00 +42°C° 0 mm 2 mps 704 mmHg 12%
    16:00 +42°C° 0 mm 2 mps 703 mmHg 12%
    17:00 +37°C° 0 mm 1 mps 703 mmHg 15%
    18:00 +34°C° 0 mm 1 mps 703 mmHg 18%
    19:00 +28°C° 0 mm 0 mps 703 mmHg 21%
    20:00 +27°C° 0 mm 0 mps 704 mmHg 22%
    21:00 +26°C° 0 mm 0 mps 705 mmHg 24%
    22:00 +25°C° 0 mm 0 mps 705 mmHg 25%
    23:00 +24°C° 0 mm 0 mps 705 mmHg 29%

    Day after tomorrow, 1 March, Sunday

    Time Temperature Precipitation Wind Pressure Humidity
    00:00 +25°C° 0 mm 1 mps 705 mmHg 33%
    01:00 +24°C° 0 mm 1 mps 705 mmHg 37%
    02:00 +24°C° 0 mm 2 mps 705 mmHg 47%
    03:00 +25°C° 0 mm 2 mps 706 mmHg 56%
    04:00 +25°C° 0 mm 3 mps 706 mmHg 66%
    05:00 +25°C° 0 mm 3 mps 706 mmHg 69%
    06:00 +25°C° 0 mm 2 mps 706 mmHg 72%
    07:00 +25°C° 0 mm 2 mps 707 mmHg 76%
    08:00 +28°C° 0 mm 2 mps 707 mmHg 65%
    09:00 +31°C° 0 mm 3 mps 708 mmHg 55%
    10:00 +35°C° 0 mm 3 mps 709 mmHg 45%
    11:00 +38°C° 0 mm 2 mps 708 mmHg 37%
    12:00 +41°C° 0 mm 2 mps 707 mmHg 29%
    13:00 +44°C° 0 mm 1 mps 707 mmHg 21%
    14:00 +42°C° 0 mm 1 mps 706 mmHg 24%
    15:00 +40°C° 0 mm 1 mps 705 mmHg 26%
    16:00 +37°C° 0 mm 1 mps 704 mmHg 28%
    17:00 +35°C° 0 mm 1 mps 704 mmHg 36%
    18:00 +32°C° 0 mm 2 mps 704 mmHg 44%
    19:00 +29°C° 0 mm 2 mps 704 mmHg 52%
    20:00 +28°C° 0 mm 2 mps 705 mmHg 56%
    21:00 +27°C° 0 mm 2 mps 706 mmHg 61%
    22:00 +26°C° 0 mm 2 mps 706 mmHg 65%
    23:00 +25°C° 0 mm 1 mps 706 mmHg 71%

    2 March, Monday

    Time Temperature Precipitation Wind Pressure Humidity
    00:00 +24°C° 0 mm 1 mps 706 mmHg 76%
    01:00 +23°C° 0 mm 1 mps 706 mmHg 82%
    02:00 +23°C° 0.1 mm 1 mps 706 mmHg 84%
    03:00 +23°C° 0.1 mm 1 mps 706 mmHg 87%
    04:00 +23°C° 0.1 mm 2 mps 706 mmHg 89%
    05:00 +23°C° 0 mm 2 mps 707 mmHg 88%
    06:00 +23°C° 0 mm 2 mps 707 mmHg 87%
    07:00 +24°C° 0 mm 1 mps 708 mmHg 86%
    08:00 +27°C° 0 mm 2 mps 708 mmHg 73%
    09:00 +30°C° 0 mm 2 mps 709 mmHg 60%
    10:00 +34°C° 0 mm 3 mps 709 mmHg 47%
    11:00 +37°C° 0 mm 2 mps 709 mmHg 40%
    12:00 +39°C° 0 mm 2 mps 708 mmHg 33%
    13:00 +42°C° 0 mm 1 mps 707 mmHg 26%
    14:00 +41°C° 0 mm 1 mps 707 mmHg 28%
    15:00 +39°C° 0 mm 1 mps 706 mmHg 29%
    16:00 +37°C° 0 mm 1 mps 705 mmHg 30%
    17:00 +35°C° 0.1 mm 2 mps 705 mmHg 41%
    18:00 +30°C° 0.1 mm 2 mps 705 mmHg 53%
    19:00 +27°C° 0.1 mm 2 mps 706 mmHg 64%
    20:00 +26°C° 0.2 mm 2 mps 706 mmHg 67%
    21:00 +26°C° 0.2 mm 2 mps 707 mmHg 71%
    22:00 +25°C° 0.2 mm 2 mps 708 mmHg 75%
    23:00 +25°C° 0 mm 2 mps 708 mmHg 80%

    3 March, Tuesday

    Time Temperature Precipitation Wind Pressure Humidity
    00:00 +24°C° 0 mm 1 mps 707 mmHg 85%
    01:00 +23°C° 0 mm 1 mps 707 mmHg 91%
    02:00 +23°C° 0.4 mm 1 mps 707 mmHg 92%
    03:00 +23°C° 0.4 mm 1 mps 707 mmHg 94%
    04:00 +23°C° 0.4 mm 1 mps 707 mmHg 96%
    05:00 +23°C° 0 mm 1 mps 708 mmHg 94%
    06:00 +23°C° 0 mm 1 mps 708 mmHg 93%
    07:00 +23°C° 0 mm 1 mps 708 mmHg 92%
    08:00 +26°C° 0 mm 2 mps 709 mmHg 78%
    09:00 +29°C° 0 mm 2 mps 710 mmHg 65%
    10:00 +34°C° 0 mm 2 mps 710 mmHg 51%
    11:00 +36°C° 0 mm 1 mps 709 mmHg 42%
    12:00 +40°C° 0 mm 1 mps 709 mmHg 34%
    13:00 +41°C° 0 mm 0 mps 708 mmHg 25%
    14:00 +41°C° 0.1 mm 1 mps 707 mmHg 30%
    15:00 +39°C° 0.1 mm 1 mps 706 mmHg 34%
    16:00 +36°C° 0.1 mm 2 mps 705 mmHg 38%
    17:00 +32°C° 1 mm 2 mps 706 mmHg 53%
    18:00 +28°C° 1 mm 1 mps 706 mmHg 67%
    19:00 +25°C° 1 mm 1 mps 706 mmHg 81%
    20:00 +24°C° 0.3 mm 1 mps 706 mmHg 83%
    21:00 +24°C° 0.3 mm 1 mps 707 mmHg 86%
    22:00 +23°C° 0.3 mm 2 mps 708 mmHg 88%
    23:00 +23°C° 0.1 mm 1 mps 707 mmHg 88%

    4 March, Wednesday

    Time Temperature Precipitation Wind Pressure Humidity
    00:00 +23°C° 0.1 mm 1 mps 707 mmHg 87%
    01:00 +23°C° 0.1 mm 1 mps 707 mmHg 87%
    02:00 +23°C° 0.1 mm 1 mps 707 mmHg 86%
    03:00 +23°C° 0.1 mm 1 mps 707 mmHg 86%
    04:00 +23°C° 0.1 mm 2 mps 706 mmHg 85%
    05:00 +24°C° 0 mm 1 mps 707 mmHg 85%
    06:00 +24°C° 0 mm 1 mps 707 mmHg 86%
    07:00 +24°C° 0 mm 1 mps 708 mmHg 87%
    08:00 +26°C° 0 mm 1 mps 708 mmHg 75%
    09:00 +29°C° 0 mm 2 mps 709 mmHg 63%
    10:00 +32°C° 0 mm 2 mps 709 mmHg 51%
    11:00 +35°C° 0 mm 1 mps 709 mmHg 43%
    12:00 +37°C° 0 mm 1 mps 708 mmHg 36%
    13:00 +41°C° 0 mm 1 mps 707 mmHg 28%
    14:00 +40°C° 0 mm 1 mps 707 mmHg 28%
    15:00 +40°C° 0 mm 1 mps 706 mmHg 28%
    16:00 +39°C° 0 mm 2 mps 705 mmHg 27%
    17:00 +36°C° 0 mm 2 mps 706 mmHg 33%
    18:00 +33°C° 0 mm 1 mps 706 mmHg 38%
    19:00 +30°C° 0 mm 1 mps 706 mmHg 44%
    20:00 +29°C° 0.2 mm 1 mps 706 mmHg 49%
    21:00 +28°C° 0.2 mm 1 mps 707 mmHg 55%
    22:00 +27°C° 0.2 mm 1 mps 707 mmHg 60%
    23:00 +24°C° 0.6 mm 0 mps 707 mmHg 66%
    Show more